Regional Weather Roundup
Issued by NWS

Home | Current Version | Previous Version | Graphics & Text | Print | Product List | Glossary Off
Versions: 1 2 3 4 5 6 7 8 9 10 11 12 13 14 15 16 17 18 19 20 21 22 23 24 25 26 27 28 29 30 31 32 33 34 35 36 37 38 39 40 41 42 43 44 45 46 47 48 49 50

000
ASUS43 KBIS 220010
RWRND

NORTH DAKOTA REGIONAL WEATHER ROUNDUP
NATIONAL WEATHER SERVICE BISMARCK ND
600 PM CST SUN JAN 21 2018

NOTE: "FAIR" INDICATES FEW OR NO CLOUDS BELOW 12,000 FEET WITH NO
SIGNIFICANT WEATHER AND/OR OBSTRUCTIONS TO VISIBILITY.


NDZ001>003-009>011-017-220100-
NORTHWEST NORTH DAKOTA

CITY           SKY/WX    TMP DP  RH WIND       PRES   REMARKS
WILLISTON      CLEAR     27  20  75 W5        30.00R
6HR MIN TEMP:  21; 6HR MAX TEMP:  31;

MINOT          CLEAR     27  20  75 S5        30.01R
MINOT AFB      CLEAR     24  19  80 SW8       29.99R WCI  15
$$

NDZ018>021-031>035-040>046-220100-
SOUTHWEST NORTH DAKOTA

CITY           SKY/WX    TMP DP  RH WIND       PRES   REMARKS
BISMARCK       CLEAR     23  20  88 E5        30.04R WCI  17
6HR MIN TEMP:  22; 6HR MAX TEMP:  28;

DICKINSON      PTCLDY    26  21  81 W7        29.98R WCI  18
GARRISON         N/A     25  21  85 CALM      30.01R
6HR MIN TEMP:  21; 6HR MAX TEMP:  30;

HETTINGER ARPT PTCLDY    27  22  81 W6        30.01R
$$

NDZ004>008-012>016-024-026-027-054-220100-
NORTHEAST NORTH DAKOTA

CITY           SKY/WX    TMP DP  RH WIND       PRES   REMARKS
GRAND FORKS    CLOUDY    25  23  92 N8        30.10S WCI  16
GRND FRKS AFB  CLOUDY    25  23  93 NE8       30.10S WCI  16
DEVILS LAKE    LGT SNOW  22  20  92 E6        30.09R VSB 1   WCI  14
$$

NDZ022-023-025-028>030-036>039-047>053-220100-
SOUTHEAST NORTH DAKOTA

CITY           SKY/WX    TMP DP  RH WIND       PRES   REMARKS
FARGO          CLOUDY    26  23  88 N10       30.07R WCI  16
6HR MIN TEMP:  22; 6HR MAX TEMP:  29;

JAMESTOWN      CLOUDY    26  24  92 CALM      30.05R
$$




USA.gov is the U.S. government's official web portal to all federal, state and local government web resources and services.